Regional Weather Roundup
Issued by NWS

Home | Current Version | Previous Version | Text Only | Print | Product List | Glossary Off
Versions: 1 2 3 4 5 6 7 8 9 10 11 12 13 14 15 16 17 18 19 20 21 22 23 24 25 26 27 28 29 30 31 32 33 34 35 36 37 38 39 40 41 42 43 44 45 46 47 48 49 50

000
ASUS43 KDMX 011807
RWRIA

WEATHER ROUNDUP FOR IOWA
NATIONAL WEATHER SERVICE DES MOINES IA
100 PM CDT WED OCT 01 2014

NOTE: "FAIR" INDICATES FEW OR NO CLOUDS BELOW 12,000 FEET WITH NO
SIGNIFICANT WEATHER AND/OR OBSTRUCTIONS TO VISIBILITY.

* - THESE STATIONS ARE NOT NWS STATIONS...THUS NOT UNDER NWS
QUALITY CONTROL.  THEY ALSO DO NOT REPORT WEATHER SUCH
AS PRECIPITATION OR FOG.

IAZ001>003-012>014-020>022-031>034-043>046-011900-
   NORTHWEST IOWA

CITY           SKY/WX    TMP DP  RH WIND       PRES   REMARKS
CARROLL *      CLOUDY    72  63  73 VRB6G14   29.76F
CHEROKEE *     PTSUNNY   69  62  79 S5        29.75S
DENISON *      PTSUNNY   70  63  78 CALM      29.73F
LE MARS *      MOSUNNY   73  61  64 S12       29.74S
ORANGE CITY *  MOSUNNY   72  59  64 S9        29.74S
SHELDON *      PTSUNNY   68  61  77 S9        29.74R
SIOUX CITY       N/A     72  61  68 VRB7      29.74S
6HR MIN TEMP:  57; 6HR MAX TEMP:  72;

SPENCER        CLOUDY    61  58  90 SE7       29.76S
6HR MIN TEMP:  57; 6HR MAX TEMP:  62; 6HR PCP:  0.01;

STORM LAKE *   PTSUNNY   68  59  73 SW3       29.77S
$$

IAZ055>058-069>071-079>083-090>094-011900-
   SOUTHWEST IOWA

CITY           SKY/WX    TMP DP  RH WIND       PRES   REMARKS
ATLANTIC *     CLOUDY    66  64  94 CALM      29.76F
AUDUBON *      PTSUNNY   68  61  77 S5        29.78S
CLARINDA *     CLOUDY    72  66  83 S8        29.77F
COUNCIL BLFS * CLOUDY    70  66  88 CALM      29.75S
CRESTON *      CLOUDY    68  64  88 S14G21    29.79R
HARLAN  *      PTSUNNY   72  64  78 S9        29.80R
LAMONI         CLOUDY    65  62  90 SE12      29.80F
6HR MIN TEMP:  62; 6HR MAX TEMP:  65; 6HR PCP:  0.18;

RED OAK *      CLOUDY    68  66  94 S5        29.76S
SHENANDOAH *   CLOUDY    72  66  83 S5        29.76S
$$

IAZ047>049-059>061-072>074-084-011900-
   CENTRAL IOWA

CITY           SKY/WX    TMP DP  RH WIND       PRES   REMARKS
AMES           CLOUDY    66  63  90 S10       29.79F
6HR MIN TEMP:  54; 6HR MAX TEMP:  66; 6HR PCP:  0.22;

ANKENY *       PTSUNNY   68  63  83 S10       29.78F
CHARITON *     CLOUDY    66  63  88 S9        29.80S
DES MOINES     CLOUDY    69  63  81 S10       29.78F
6HR MIN TEMP:  59; 6HR MAX TEMP:  69; 6HR PCP:  0.18;

GRINNELL*      PTSUNNY   65  60  81 S14       29.82F
KNOXVILLE *    CLOUDY    66  61  82 S16       29.78F
MARSHALLTOWN   PTSUNNY   66  59  78 S10       29.80F
6HR MIN TEMP:  52; 6HR MAX TEMP:  66; 6HR PCP:  0.19;

PELLA *        CLOUDY    68  62  81 S12       29.81F
PERRY *        CLOUDY    67  63  87 S10       29.77F
$$

IAZ004>006-015-016-023>025-035-036-011900-
   NORTH CENTRAL IOWA

CITY           SKY/WX    TMP DP  RH WIND       PRES   REMARKS
ALGONA *       PTSUNNY   64  61  88 S8        29.78S
CLARION *      CLOUDY    59  59 100 S7G16     29.80S
ESTHERVILLE    CLOUDY    59  58  96 SE7       29.76F FOG
6HR MIN TEMP:  53; 6HR MAX TEMP:  59; 6HR PCP:  0.05;

FORT DODGE *   CLOUDY    64  61  88 SE9       29.79S
MASON CITY     LGT RAIN  56  55  97 SE15      29.81F FOG
6HR MIN TEMP:  51; 6HR MAX TEMP:  56; 6HR PCP:  0.18;

FOREST CITY *  CLOUDY    57  57 100 SE9       29.80R FOG
IOWA FALLS *   PTSUNNY   63  59  88 SE8       29.81F
$$

IAZ007>011-017>019-026>030-037>042-050>054-066-011900-
   NORTHEAST IOWA

CITY           SKY/WX    TMP DP  RH WIND       PRES   REMARKS
CEDAR RAPIDS   MOSUNNY   61  55  82 S10       29.83S
CHARLES CITY * CLOUDY    55  54  94 SE7       29.84S
CLINTON *        N/A     66  55  68 SE14      29.89F
DECORAH *      PTSUNNY   59  52  77 VRB6G14   29.85S
MONTICELLO *   SUNNY     64  54  68 SE10G16   29.84F
OELWEIN *      MOSUNNY   63  54  72 S14       29.84S
WATERLOO       PTSUNNY   62  55  77 S14       29.82S
6HR MIN TEMP:  51; 6HR MAX TEMP:  63; 6HR PCP:  0.02;

$$

IAZ064-065-067-068-078-011900-
   EAST CENTRAL IOWA

CITY           SKY/WX    TMP DP  RH WIND       PRES   REMARKS
IOWA CITY        N/A     61  57  87 S10       29.85S
6HR MIN TEMP:  53; 6HR MAX TEMP:  61; 6HR PCP:  0.02;

MT. PLEASANT * LGT RAIN  61  58  88 SE3       29.84F
MUSCATINE *    MOSUNNY   64  57  77 SE13      29.85R
$$

IAZ062-063-075>077-085>089-095>099-011900-
   SOUTHEAST IOWA

CITY           SKY/WX    TMP DP  RH WIND       PRES   REMARKS
BURLINGTON     LGT RAIN  64  59  83 SE7       29.85F
6HR MIN TEMP:  52; 6HR MAX TEMP:  64; 6HR PCP: TRACE;

FAIRFIELD *      N/A     61  59  94 SE12G17   29.83F
FORT MADISON *   N/A     64  61  88 SE3       29.86F
KEOKUK *       CLOUDY    63  61  94 SE10      29.85S
OSKALOOSA *    CLOUDY    62  61  95 S10       29.82F
CENTERVILLE *  PTSUNNY   63  63 100 SE12      29.83F
OTTUMWA        PTSUNNY   63  61  93 S10G17    29.81F FOG
6HR MIN TEMP:  54; 6HR MAX TEMP:  62; 6HR PCP:  0.16;

WASHINGTON *   PTSUNNY   59  59 100 SE10      29.83F
$$

ABBREVIATIONS USED IN REMARKS
   TC - TEMPERATURES IN CELSIUS
  WCI - WIND CHILL INDEX
   HX - HEAT INDEX
  VSB - VISIBILITY
$$



USA.gov is the U.S. government's official web portal to all federal, state and local government web resources and services.